Tartu current weather conditions

sailwx.info

Wind from 310 at 5 knots

Air temperature -0.0° C
Visibility: greater than 5.4 NM
Dewpoint -4.0° C

Last reported at 2017-Feb-27 06:50 UTC.
Time now 2017-Feb-27 09:03 UTC

Location: N 58°18' E 026°41'.
View on Google Maps.

See reports from other nearby stations

  
Tides and Currents Weather Stations Pressure Air Temp Water Temp Dewpoint Dewpoint Depression Visibility Wind Speed Wind Dir Waves Ship Positions
date/time (UTC)wind fromknots sea level pressurealtimeterstation pressurevisibilityair tempwater tempwave heightnotes
2017-Feb-27 06:50 310 5 5.4-0.0
2017-Feb-27 05:50 340 7 5.4-0.0
2017-Feb-27 04:50 330 7 5.4-0.0
2017-Feb-27 03:50 290 6 5.4 1.0
2017-Feb-27 02:50 280 11 5.4 1.0 Snow grains.
2017-Feb-27 01:50 280 9 3.2 1.0 Snow grains.
2017-Feb-27 00:50 270 12 5.4 1.0 Snow grains.
2017-Feb-26 23:50 270 11 3.8 1.0 Snow grains.
2017-Feb-26 22:50 270 8 5.4 1.0
2017-Feb-26 21:50 270 8 5.4 1.0
2017-Feb-26 20:50 260 6 4.9 1.0 Light snow.
2017-Feb-26 19:50 250 7 5.4 1.0
2017-Feb-26 18:50 240 6 3.8 1.0 Light drizzle snow.
2017-Feb-26 17:50 240 6 2.2 1.0 Light drizzle. Mist.
2017-Feb-26 16:50 230 7 4.3 1.0
2017-Feb-26 15:50 230 6 2.7 1.0 Light drizzle. Mist.
2017-Feb-26 14:50 230 6 1.5 1.0 Light drizzle snow.
2017-Feb-26 13:50 210 6 2.6 1.0 Light snow.
2017-Feb-26 12:50 210 8 3.2 1.0 Snow grains.
2017-Feb-26 11:50 200 9 5.4-0.0
2017-Feb-26 10:50 200 9 3.2-0.0 Light snow.
2017-Feb-26 09:50 200 11 3.2-0.0 Light snow.
2017-Feb-26 08:50 170 8 2.4-1.0 Light snow.
2017-Feb-26 07:50 150 7 1.0-3.0 Light snow.
2017-Feb-26 06:50 170 7 3.2-2.0 Light snow.
2017-Feb-26 05:50 190 8 1.2-3.0 Light snow.
2017-Feb-26 04:50 210 11 5.4-3.0
2017-Feb-26 03:50 220 12 5.4-3.0
2017-Feb-26 02:50 230 12 5.4-3.0
2017-Feb-26 01:50 230 11 5.4-3.0
2017-Feb-26 00:50 230 11 5.4-4.0
2017-Feb-25 23:50 230 9 5.4-4.0
2017-Feb-25 22:50 240 11 5.4-5.0
2017-Feb-25 21:50 240 12 5.4-4.0
2017-Feb-25 20:50 250 13 5.4-4.0
2017-Feb-25 19:50 250 13 5.4-4.0
2017-Feb-25 18:50 260 14 5.4-3.0
2017-Feb-25 17:50 250 13 5.4-3.0
2017-Feb-25 16:50 260 13 5.4-4.0
2017-Feb-25 15:50 250 9 5.4-4.0
2017-Feb-25 14:50 270 12 5.4-3.0
2017-Feb-25 13:50 280 13 5.4-4.0
2017-Feb-25 12:50 280 13 5.4-4.0 Light low drifting snow.
2017-Feb-25 11:50 290 13 5.4-5.0 Light snow showers. Light low drifting snow.
2017-Feb-25 10:50 300 13 5.4-5.0 Light low drifting snow.
2017-Feb-25 09:50 300 11 5.4-5.0 Light low drifting snow.